Year,Month,Day,Hour,Minute,Value (Times are PST for insolation in W/m^2)
2011,08,13,00,00,0.00
2011,08,13,00,01,0.00
2011,08,13,00,02,0.00
2011,08,13,00,03,0.00
2011,08,13,00,04,0.00
2011,08,13,00,05,0.00
2011,08,13,00,06,0.00
2011,08,13,00,07,0.00
2011,08,13,00,08,0.00
2011,08,13,00,09,0.00
2011,08,13,00,10,0.00
2011,08,13,00,11,0.00
2011,08,13,00,12,0.00
2011,08,13,00,13,0.00
2011,08,13,00,14,0.00
2011,08,13,00,15,0.00
2011,08,13,00,16,0.00
2011,08,13,00,17,0.00
2011,08,13,00,18,0.00
2011,08,13,00,19,0.00
2011,08,13,00,20,0.00
2011,08,13,00,21,0.00
2011,08,13,00,22,0.00
2011,08,13,00,23,0.00
2011,08,13,00,24,0.00
2011,08,13,00,25,0.00
2011,08,13,00,26,0.00
2011,08,13,00,27,0.00
2011,08,13,00,28,0.00
2011,08,13,00,29,0.00
2011,08,13,00,30,0.00
2011,08,13,00,31,0.00
2011,08,13,00,32,0.00
2011,08,13,00,33,0.00
2011,08,13,00,34,0.00
2011,08,13,00,35,0.00
2011,08,13,00,36,0.00
2011,08,13,00,37,0.00
2011,08,13,00,38,0.00
2011,08,13,00,39,0.00
2011,08,13,00,40,0.00
2011,08,13,00,41,0.00
2011,08,13,00,42,0.00
2011,08,13,00,43,0.00
2011,08,13,00,44,0.00
2011,08,13,00,45,0.00
2011,08,13,00,46,0.00
2011,08,13,00,47,0.00
2011,08,13,00,48,0.00
2011,08,13,00,49,0.00
2011,08,13,00,50,0.00
2011,08,13,00,51,0.00
2011,08,13,00,52,0.00
2011,08,13,00,53,0.00
2011,08,13,00,54,0.00
2011,08,13,00,55,0.00
2011,08,13,00,56,0.00
2011,08,13,00,57,0.00
2011,08,13,00,58,0.00
2011,08,13,00,59,0.00
2011,08,13,01,00,0.00
2011,08,13,01,01,0.00
2011,08,13,01,02,0.00
2011,08,13,01,03,0.00
2011,08,13,01,04,0.00
2011,08,13,01,05,0.00
2011,08,13,01,06,0.00
2011,08,13,01,07,0.00
2011,08,13,01,08,0.00
2011,08,13,01,09,0.00
2011,08,13,01,10,0.00
2011,08,13,01,11,0.00
2011,08,13,01,12,0.00
2011,08,13,01,13,0.00
2011,08,13,01,14,0.00
2011,08,13,01,15,0.00
2011,08,13,01,16,0.00
2011,08,13,01,17,0.00
2011,08,13,01,18,0.00
2011,08,13,01,19,0.00
2011,08,13,01,20,0.00
2011,08,13,01,21,0.00
2011,08,13,01,22,0.00
2011,08,13,01,23,0.00
2011,08,13,01,24,0.00
2011,08,13,01,25,0.00
2011,08,13,01,26,0.00
2011,08,13,01,27,0.00
2011,08,13,01,28,0.00
2011,08,13,01,29,0.00
2011,08,13,01,30,0.00
2011,08,13,01,31,0.00
2011,08,13,01,32,0.00
2011,08,13,01,33,0.00
2011,08,13,01,34,0.00
2011,08,13,01,35,0.00
2011,08,13,01,36,0.00
2011,08,13,01,37,0.00
2011,08,13,01,38,0.00
2011,08,13,01,39,0.00
2011,08,13,01,40,0.00
2011,08,13,01,41,0.00
2011,08,13,01,42,0.00
2011,08,13,01,43,0.00
2011,08,13,01,44,0.00
2011,08,13,01,45,0.00
2011,08,13,01,46,0.00
2011,08,13,01,47,0.00
2011,08,13,01,48,0.00
2011,08,13,01,49,0.00
2011,08,13,01,50,0.00
2011,08,13,01,51,0.00
2011,08,13,01,52,0.00
2011,08,13,01,53,0.00
2011,08,13,01,54,0.00
2011,08,13,01,55,0.00
2011,08,13,01,56,0.00
2011,08,13,01,57,0.00
2011,08,13,01,58,0.00
2011,08,13,01,59,0.00
2011,08,13,02,00,0.00
2011,08,13,02,01,0.00
2011,08,13,02,02,0.00
2011,08,13,02,03,0.00
2011,08,13,02,04,0.00
2011,08,13,02,05,0.00
2011,08,13,02,06,0.00
2011,08,13,02,07,0.00
2011,08,13,02,08,0.00
2011,08,13,02,09,0.00
2011,08,13,02,10,0.00
2011,08,13,02,11,0.00
2011,08,13,02,12,0.00
2011,08,13,02,13,0.00
2011,08,13,02,14,0.00
2011,08,13,02,15,0.00
2011,08,13,02,16,0.00
2011,08,13,02,17,0.00
2011,08,13,02,18,0.00
2011,08,13,02,19,0.00
2011,08,13,02,20,0.00
2011,08,13,02,21,0.00
2011,08,13,02,22,0.00
2011,08,13,02,23,0.00
2011,08,13,02,24,0.00
2011,08,13,02,25,0.00
2011,08,13,02,26,0.00
2011,08,13,02,27,0.00
2011,08,13,02,28,0.00
2011,08,13,02,29,0.00
2011,08,13,02,30,0.00
2011,08,13,02,31,0.00
2011,08,13,02,32,0.00
2011,08,13,02,33,0.00
2011,08,13,02,34,0.00
2011,08,13,02,35,0.00
2011,08,13,02,36,0.00
2011,08,13,02,37,0.00
2011,08,13,02,38,0.00
2011,08,13,02,39,0.00
2011,08,13,02,40,0.00
2011,08,13,02,41,0.00
2011,08,13,02,42,0.00
2011,08,13,02,43,0.00
2011,08,13,02,44,0.00
2011,08,13,02,45,0.00
2011,08,13,02,46,0.00
2011,08,13,02,47,0.00
2011,08,13,02,48,0.00
2011,08,13,02,49,0.00
2011,08,13,02,50,0.00
2011,08,13,02,51,0.00
2011,08,13,02,52,0.00
2011,08,13,02,53,0.00
2011,08,13,02,54,0.00
2011,08,13,02,55,0.00
2011,08,13,02,56,0.00
2011,08,13,02,57,0.00
2011,08,13,02,58,0.00
2011,08,13,02,59,0.00
2011,08,13,03,00,0.00
2011,08,13,03,01,0.00
2011,08,13,03,02,0.00
2011,08,13,03,03,0.00
2011,08,13,03,04,0.00
2011,08,13,03,05,0.00
2011,08,13,03,06,0.00
2011,08,13,03,07,0.00
2011,08,13,03,08,0.00
2011,08,13,03,09,0.00
2011,08,13,03,10,0.00
2011,08,13,03,11,0.00
2011,08,13,03,12,0.00
2011,08,13,03,13,0.00
2011,08,13,03,14,0.00
2011,08,13,03,15,0.00
2011,08,13,03,16,0.00
2011,08,13,03,17,0.00
2011,08,13,03,18,0.00
2011,08,13,03,19,0.00
2011,08,13,03,20,0.00
2011,08,13,03,21,0.00
2011,08,13,03,22,0.00
2011,08,13,03,23,0.00
2011,08,13,03,24,0.00
2011,08,13,03,25,0.00
2011,08,13,03,26,0.00
2011,08,13,03,27,0.00
2011,08,13,03,28,0.00
2011,08,13,03,29,0.00
2011,08,13,03,30,0.00
2011,08,13,03,31,0.00
2011,08,13,03,32,0.00
2011,08,13,03,33,0.00
2011,08,13,03,34,0.00
2011,08,13,03,35,0.00
2011,08,13,03,36,0.00
2011,08,13,03,37,0.00
2011,08,13,03,38,0.00
2011,08,13,03,39,0.00
2011,08,13,03,40,0.00
2011,08,13,03,41,0.00
2011,08,13,03,42,0.00
2011,08,13,03,43,0.00
2011,08,13,03,44,0.00
2011,08,13,03,45,0.00
2011,08,13,03,46,0.00
2011,08,13,03,47,0.00
2011,08,13,03,48,0.00
2011,08,13,03,49,0.00
2011,08,13,03,50,0.00
2011,08,13,03,51,0.00
2011,08,13,03,52,0.00
2011,08,13,03,53,0.00
2011,08,13,03,54,0.00
2011,08,13,03,55,0.00
2011,08,13,03,56,0.00
2011,08,13,03,57,0.00
2011,08,13,03,58,0.00
2011,08,13,03,59,0.00
2011,08,13,04,00,0.00
2011,08,13,04,01,0.00
2011,08,13,04,02,0.00
2011,08,13,04,03,0.00
2011,08,13,04,04,0.00
2011,08,13,04,05,0.00
2011,08,13,04,06,0.00
2011,08,13,04,07,0.00
2011,08,13,04,08,0.00
2011,08,13,04,09,0.00
2011,08,13,04,10,0.00
2011,08,13,04,11,0.00
2011,08,13,04,12,0.00
2011,08,13,04,13,0.00
2011,08,13,04,14,0.00
2011,08,13,04,15,0.00
2011,08,13,04,16,0.00
2011,08,13,04,17,0.00
2011,08,13,04,18,0.00
2011,08,13,04,19,0.00
2011,08,13,04,20,0.00
2011,08,13,04,21,0.00
2011,08,13,04,22,0.00
2011,08,13,04,23,0.00
2011,08,13,04,24,0.00
2011,08,13,04,25,0.00
2011,08,13,04,26,0.00
2011,08,13,04,27,0.00
2011,08,13,04,28,0.00
2011,08,13,04,29,0.00
2011,08,13,04,30,0.00
2011,08,13,04,31,0.00
2011,08,13,04,32,0.00
2011,08,13,04,33,0.00
2011,08,13,04,34,0.00
2011,08,13,04,35,0.00
2011,08,13,04,36,0.00
2011,08,13,04,37,0.00
2011,08,13,04,38,0.00
2011,08,13,04,39,0.00
2011,08,13,04,40,0.00
2011,08,13,04,41,0.00
2011,08,13,04,42,0.00
2011,08,13,04,43,0.00
2011,08,13,04,44,0.00
2011,08,13,04,45,0.00
2011,08,13,04,46,0.00
2011,08,13,04,47,0.00
2011,08,13,04,48,0.00
2011,08,13,04,49,0.00
2011,08,13,04,50,0.00
2011,08,13,04,51,0.00
2011,08,13,04,52,0.00
2011,08,13,04,53,0.00
2011,08,13,04,54,0.00
2011,08,13,04,55,0.00
2011,08,13,04,56,0.00
2011,08,13,04,57,0.00
2011,08,13,04,58,0.00
2011,08,13,04,59,0.00
2011,08,13,05,00,0.00
2011,08,13,05,01,0.00
2011,08,13,05,02,0.00
2011,08,13,05,03,0.00
2011,08,13,05,04,0.00
2011,08,13,05,05,0.00
2011,08,13,05,06,0.00
2011,08,13,05,07,0.00
2011,08,13,05,08,0.00
2011,08,13,05,09,0.00
2011,08,13,05,10,0.00
2011,08,13,05,11,0.00
2011,08,13,05,12,0.00
2011,08,13,05,13,0.00
2011,08,13,05,14,0.00
2011,08,13,05,15,0.00
2011,08,13,05,16,0.00
2011,08,13,05,17,0.00
2011,08,13,05,18,0.00
2011,08,13,05,19,0.00
2011,08,13,05,20,0.00
2011,08,13,05,21,0.00
2011,08,13,05,22,0.00
2011,08,13,05,23,0.00
2011,08,13,05,24,0.00
2011,08,13,05,25,0.00
2011,08,13,05,26,0.00
2011,08,13,05,27,0.00
2011,08,13,05,28,0.00
2011,08,13,05,29,0.00
2011,08,13,05,30,0.00
2011,08,13,05,31,0.00
2011,08,13,05,32,0.00
2011,08,13,05,33,0.00
2011,08,13,05,34,0.00
2011,08,13,05,35,0.00
2011,08,13,05,36,0.00
2011,08,13,05,37,0.00
2011,08,13,05,38,0.00
2011,08,13,05,39,0.00
2011,08,13,05,40,0.00
2011,08,13,05,41,0.00
2011,08,13,05,42,0.00
2011,08,13,05,43,0.00
2011,08,13,05,44,0.00
2011,08,13,05,45,0.00
2011,08,13,05,46,0.00
2011,08,13,05,47,0.00
2011,08,13,05,48,0.00
2011,08,13,05,49,0.00
2011,08,13,05,50,0.00
2011,08,13,05,51,0.00
2011,08,13,05,52,0.00
2011,08,13,05,53,0.00
2011,08,13,05,54,0.00
2011,08,13,05,55,0.00
2011,08,13,05,56,0.00
2011,08,13,05,57,0.00
2011,08,13,05,58,0.00
2011,08,13,05,59,0.00
2011,08,13,06,00,0.00
2011,08,13,06,01,0.00
2011,08,13,06,02,0.00
2011,08,13,06,03,0.00
2011,08,13,06,04,0.00
2011,08,13,06,05,0.00
2011,08,13,06,06,0.00
2011,08,13,06,07,4.50
2011,08,13,06,08,5.00
2011,08,13,06,09,5.00
2011,08,13,06,10,5.90
2011,08,13,06,11,7.00
2011,08,13,06,12,7.00
2011,08,13,06,13,7.10
2011,08,13,06,14,9.00
2011,08,13,06,15,9.00
2011,08,13,06,16,9.00
2011,08,13,06,17,10.30
2011,08,13,06,18,11.00
2011,08,13,06,19,11.10
2011,08,13,06,20,12.00
2011,08,13,06,21,12.00
2011,08,13,06,22,12.00
2011,08,13,06,23,12.00
2011,08,13,06,24,12.00
2011,08,13,06,25,12.20
2011,08,13,06,26,14.00
2011,08,13,06,27,14.00
2011,08,13,06,28,15.10
2011,08,13,06,29,16.00
2011,08,13,06,30,16.00
2011,08,13,06,31,16.30
2011,08,13,06,32,18.00
2011,08,13,06,33,18.00
2011,08,13,06,34,18.00
2011,08,13,06,35,18.00
2011,08,13,06,36,18.90
2011,08,13,06,37,19.00
2011,08,13,06,38,19.00
2011,08,13,06,39,19.80
2011,08,13,06,40,21.00
2011,08,13,06,41,21.00
2011,08,13,06,42,22.80
2011,08,13,06,43,23.00
2011,08,13,06,44,23.00
2011,08,13,06,45,23.00
2011,08,13,06,46,24.20
2011,08,13,06,47,25.00
2011,08,13,06,48,25.00
2011,08,13,06,49,26.00
2011,08,13,06,50,26.00
2011,08,13,06,51,26.90
2011,08,13,06,52,28.00
2011,08,13,06,53,28.00
2011,08,13,06,54,28.10
2011,08,13,06,55,30.00
2011,08,13,06,56,30.70
2011,08,13,06,57,32.00
2011,08,13,06,58,32.00
2011,08,13,06,59,32.80
2011,08,13,07,00,34.90
2011,08,13,07,01,35.00
2011,08,13,07,02,36.60
2011,08,13,07,03,39.00
2011,08,13,07,04,39.00
2011,08,13,07,05,39.00
2011,08,13,07,06,39.00
2011,08,13,07,07,39.00
2011,08,13,07,08,39.00
2011,08,13,07,09,39.00
2011,08,13,07,10,39.00
2011,08,13,07,11,39.80
2011,08,13,07,12,40.00
2011,08,13,07,13,39.70
2011,08,13,07,14,39.00
2011,08,13,07,15,40.60
2011,08,13,07,16,43.40
2011,08,13,07,17,44.00
2011,08,13,07,18,132.40
2011,08,13,07,19,134.20
2011,08,13,07,20,134.00
2011,08,13,07,21,138.20
2011,08,13,07,22,140.50
2011,08,13,07,23,143.60
2011,08,13,07,24,144.00
2011,08,13,07,25,146.10
2011,08,13,07,26,151.90
2011,08,13,07,27,154.70
2011,08,13,07,28,157.50
2011,08,13,07,29,159.90
2011,08,13,07,30,162.20
2011,08,13,07,31,163.00
2011,08,13,07,32,164.90
2011,08,13,07,33,168.20
2011,08,13,07,34,171.20
2011,08,13,07,35,172.10
2011,08,13,07,36,174.40
2011,08,13,07,37,176.00
2011,08,13,07,38,178.40
2011,08,13,07,39,183.60
2011,08,13,07,40,185.80
2011,08,13,07,41,187.80
2011,08,13,07,42,189.00
2011,08,13,07,43,193.10
2011,08,13,07,44,196.00
2011,08,13,07,45,198.90
2011,08,13,07,46,201.60
2011,08,13,07,47,204.00
2011,08,13,07,48,206.00
2011,08,13,07,49,207.80
2011,08,13,07,50,212.00
2011,08,13,07,51,213.70
2011,08,13,07,52,215.70
2011,08,13,07,53,220.30
2011,08,13,07,54,224.00
2011,08,13,07,55,227.80
2011,08,13,07,56,229.00
2011,08,13,07,57,232.50
2011,08,13,07,58,234.00
2011,08,13,07,59,241.20
2011,08,13,08,00,243.20
2011,08,13,08,01,244.80
2011,08,13,08,02,247.10
2011,08,13,08,03,250.10
2011,08,13,08,04,254.60
2011,08,13,08,05,257.60
2011,08,13,08,06,260.60
2011,08,13,08,07,262.90
2011,08,13,08,08,264.60
2011,08,13,08,09,266.50
2011,08,13,08,10,270.60
2011,08,13,08,11,272.80
2011,08,13,08,12,276.60
2011,08,13,08,13,278.50
2011,08,13,08,14,280.20
2011,08,13,08,15,282.60
2011,08,13,08,16,284.90
2011,08,13,08,17,287.60
2011,08,13,08,18,290.00
2011,08,13,08,19,292.30
2011,08,13,08,20,296.30
2011,08,13,08,21,298.60
2011,08,13,08,22,301.10
2011,08,13,08,23,304.50
2011,08,13,08,24,307.10
2011,08,13,08,25,310.00
2011,08,13,08,26,312.40
2011,08,13,08,27,315.40
2011,08,13,08,28,318.10
2011,08,13,08,29,320.40
2011,08,13,08,30,322.40
2011,08,13,08,31,324.10
2011,08,13,08,32,326.40
2011,08,13,08,33,329.50
2011,08,13,08,34,336.00
2011,08,13,08,35,338.00
2011,08,13,08,36,339.20
2011,08,13,08,37,341.00
2011,08,13,08,38,344.50
2011,08,13,08,39,347.80
2011,08,13,08,40,350.20
2011,08,13,08,41,352.30
2011,08,13,08,42,354.70
2011,08,13,08,43,358.60
2011,08,13,08,44,360.00
2011,08,13,08,45,363.50
2011,08,13,08,46,366.20
2011,08,13,08,47,368.20
2011,08,13,08,48,372.40
2011,08,13,08,49,376.40
2011,08,13,08,50,379.50
2011,08,13,08,51,380.90
2011,08,13,08,52,381.40
2011,08,13,08,53,384.50
2011,08,13,08,54,388.40
2011,08,13,08,55,391.20
2011,08,13,08,56,393.60
2011,08,13,08,57,395.90
2011,08,13,08,58,397.40
2011,08,13,08,59,399.70
2011,08,13,09,00,402.50
2011,08,13,09,01,405.30
2011,08,13,09,02,409.00
2011,08,13,09,03,411.30
2011,08,13,09,04,415.50
2011,08,13,09,05,417.40
2011,08,13,09,06,420.00
2011,08,13,09,07,423.30
2011,08,13,09,08,424.80
2011,08,13,09,09,426.90
2011,08,13,09,10,427.40
2011,08,13,09,11,430.20
2011,08,13,09,12,433.10
2011,08,13,09,13,435.40
2011,08,13,09,14,437.70
2011,08,13,09,15,441.10
2011,08,13,09,16,443.50
2011,08,13,09,17,444.20
2011,08,13,09,18,439.10
2011,08,13,09,19,431.20
2011,08,13,09,20,427.30
2011,08,13,09,21,450.80
2011,08,13,09,22,456.80
2011,08,13,09,23,462.40
2011,08,13,09,24,466.20
2011,08,13,09,25,470.20
2011,08,13,09,26,471.00
2011,08,13,09,27,468.90
2011,08,13,09,28,469.60
2011,08,13,09,29,475.20
2011,08,13,09,30,481.00
2011,08,13,09,31,487.70
2011,08,13,09,32,493.30
2011,08,13,09,33,494.30
2011,08,13,09,34,498.30
2011,08,13,09,35,507.70
2011,08,13,09,36,518.40
2011,08,13,09,37,525.00
2011,08,13,09,38,482.80
2011,08,13,09,39,456.90
2011,08,13,09,40,378.00
2011,08,13,09,41,378.00
2011,08,13,09,42,378.00
2011,08,13,09,43,498.80
2011,08,13,09,44,524.00
2011,08,13,09,45,511.80
2011,08,13,09,46,489.60
2011,08,13,09,47,484.50
2011,08,13,09,48,453.40
2011,08,13,09,49,364.80
2011,08,13,09,50,317.90
2011,08,13,09,51,342.30
2011,08,13,09,52,334.80
2011,08,13,09,53,350.00
2011,08,13,09,54,359.00
2011,08,13,09,55,597.40
2011,08,13,09,56,652.00
2011,08,13,09,57,640.50
2011,08,13,09,58,663.40
2011,08,13,09,59,664.00
2011,08,13,10,00,664.00
2011,08,13,10,01,630.00
2011,08,13,10,02,650.40
2011,08,13,10,03,654.00
2011,08,13,10,04,651.80
2011,08,13,10,05,643.80
2011,08,13,10,06,635.10
2011,08,13,10,07,623.70
2011,08,13,10,08,614.20
2011,08,13,10,09,608.60
2011,08,13,10,10,602.20
2011,08,13,10,11,597.20
2011,08,13,10,12,593.10
2011,08,13,10,13,589.40
2011,08,13,10,14,591.00
2011,08,13,10,15,592.00
2011,08,13,10,16,595.00
2011,08,13,10,17,594.70
2011,08,13,10,18,595.50
2011,08,13,10,19,598.80
2011,08,13,10,20,601.40
2011,08,13,10,21,603.00
2011,08,13,10,22,604.00
2011,08,13,10,23,605.70
2011,08,13,10,24,607.60
2011,08,13,10,25,608.10
2011,08,13,10,26,610.00
2011,08,13,10,27,610.70
2011,08,13,10,28,612.50
2011,08,13,10,29,614.40
2011,08,13,10,30,615.00
2011,08,13,10,31,615.40
2011,08,13,10,32,619.50
2011,08,13,10,33,621.40
2011,08,13,10,34,622.00
2011,08,13,10,35,624.70
2011,08,13,10,36,627.60
2011,08,13,10,37,629.20
2011,08,13,10,38,631.00
2011,08,13,10,39,631.80
2011,08,13,10,40,634.20
2011,08,13,10,41,635.70
2011,08,13,10,42,637.70
2011,08,13,10,43,640.00
2011,08,13,10,44,640.00
2011,08,13,10,45,641.30
2011,08,13,10,46,643.00
2011,08,13,10,47,645.80
2011,08,13,10,48,648.80
2011,08,13,10,49,650.30
2011,08,13,10,50,652.00
2011,08,13,10,51,654.20
2011,08,13,10,52,656.40
2011,08,13,10,53,656.80
2011,08,13,10,54,658.90
2011,08,13,10,55,661.40
2011,08,13,10,56,663.30
2011,08,13,10,57,664.90
2011,08,13,10,58,667.20
2011,08,13,10,59,669.60
2011,08,13,11,00,674.30
2011,08,13,11,01,671.80
2011,08,13,11,02,675.70
2011,08,13,11,03,677.00
2011,08,13,11,04,678.30
2011,08,13,11,05,679.80
2011,08,13,11,06,687.40
2011,08,13,11,07,682.50
2011,08,13,11,08,684.80
2011,08,13,11,09,686.00
2011,08,13,11,10,686.70
2011,08,13,11,11,687.00
2011,08,13,11,12,690.80
2011,08,13,11,13,691.50
2011,08,13,11,14,693.40
2011,08,13,11,15,694.00
2011,08,13,11,16,695.40
2011,08,13,11,17,697.60
2011,08,13,11,18,700.30
2011,08,13,11,19,703.50
2011,08,13,11,20,705.80
2011,08,13,11,21,707.50
2011,08,13,11,22,708.00
2011,08,13,11,23,711.40
2011,08,13,11,24,710.30
2011,08,13,11,25,712.90
2011,08,13,11,26,715.00
2011,08,13,11,27,715.00
2011,08,13,11,28,716.40
2011,08,13,11,29,718.80
2011,08,13,11,30,721.00
2011,08,13,11,31,721.30
2011,08,13,11,32,722.00
2011,08,13,11,33,723.20
2011,08,13,11,34,724.00
2011,08,13,11,35,725.80
2011,08,13,11,36,727.70
2011,08,13,11,37,733.80
2011,08,13,11,38,728.50
2011,08,13,11,39,730.20
2011,08,13,11,40,731.00
2011,08,13,11,41,734.60
2011,08,13,11,42,735.00
2011,08,13,11,43,735.70
2011,08,13,11,44,737.50
2011,08,13,11,45,739.30
2011,08,13,11,46,740.00
2011,08,13,11,47,741.90
2011,08,13,11,48,742.50
2011,08,13,11,49,744.00
2011,08,13,11,50,744.50
2011,08,13,11,51,745.00
2011,08,13,11,52,745.00
2011,08,13,11,53,749.00
2011,08,13,11,54,751.00
2011,08,13,11,55,751.00
2011,08,13,11,56,751.50
2011,08,13,11,57,751.30
2011,08,13,11,58,753.40
2011,08,13,11,59,754.20
2011,08,13,12,00,756.00
2011,08,13,12,01,756.80
2011,08,13,12,02,758.00
2011,08,13,12,03,758.70
2011,08,13,12,04,759.00
2011,08,13,12,05,759.30
2011,08,13,12,06,761.60
2011,08,13,12,07,763.00
2011,08,13,12,08,763.00
2011,08,13,12,09,764.40
2011,08,13,12,10,765.00
2011,08,13,12,11,765.00
2011,08,13,12,12,765.00
2011,08,13,12,13,765.50
2011,08,13,12,14,768.60
2011,08,13,12,15,770.00
2011,08,13,12,16,770.00
2011,08,13,12,17,770.00
2011,08,13,12,18,770.70
2011,08,13,12,19,772.00
2011,08,13,12,20,772.00
2011,08,13,12,21,772.00
2011,08,13,12,22,772.90
2011,08,13,12,23,773.40
2011,08,13,12,24,775.00
2011,08,13,12,25,775.90
2011,08,13,12,26,777.00
2011,08,13,12,27,777.00
2011,08,13,12,28,777.00
2011,08,13,12,29,777.50
2011,08,13,12,30,778.20
2011,08,13,12,31,778.10
2011,08,13,12,32,779.00
2011,08,13,12,33,779.80
2011,08,13,12,34,780.00
2011,08,13,12,35,780.50
2011,08,13,12,36,782.00
2011,08,13,12,37,782.00
2011,08,13,12,38,783.40
2011,08,13,12,39,784.00
2011,08,13,12,40,784.00
2011,08,13,12,41,784.00
2011,08,13,12,42,784.80
2011,08,13,12,43,786.00
2011,08,13,12,44,786.00
2011,08,13,12,45,786.00
2011,08,13,12,46,786.30
2011,08,13,12,47,788.00
2011,08,13,12,48,788.00
2011,08,13,12,49,788.00
2011,08,13,12,50,788.00
2011,08,13,12,51,788.00
2011,08,13,12,52,788.80
2011,08,13,12,53,788.00
2011,08,13,12,54,788.00
2011,08,13,12,55,788.00
2011,08,13,12,56,788.80
2011,08,13,12,57,789.00
2011,08,13,12,58,788.20
2011,08,13,12,59,789.00
2011,08,13,13,00,789.00
2011,08,13,13,01,789.00
2011,08,13,13,02,789.00
2011,08,13,13,03,789.00
2011,08,13,13,04,789.00
2011,08,13,13,05,789.00
2011,08,13,13,06,789.00
2011,08,13,13,07,789.00
2011,08,13,13,08,789.00
2011,08,13,13,09,790.70
2011,08,13,13,10,789.00
2011,08,13,13,11,789.00
2011,08,13,13,12,789.00
2011,08,13,13,13,789.00
2011,08,13,13,14,789.00
2011,08,13,13,15,790.90
2011,08,13,13,16,791.00
2011,08,13,13,17,791.80
2011,08,13,13,18,793.00
2011,08,13,13,19,793.00
2011,08,13,13,20,793.00
2011,08,13,13,21,791.00
2011,08,13,13,22,791.00
2011,08,13,13,23,790.20
2011,08,13,13,24,790.20
2011,08,13,13,25,791.00
2011,08,13,13,26,791.00
2011,08,13,13,27,791.00
2011,08,13,13,28,791.00
2011,08,13,13,29,790.10
2011,08,13,13,30,790.20
2011,08,13,13,31,791.00
2011,08,13,13,32,791.00
2011,08,13,13,33,791.00
2011,08,13,13,34,790.40
2011,08,13,13,35,788.50
2011,08,13,13,36,788.60
2011,08,13,13,37,789.00
2011,08,13,13,38,789.10
2011,08,13,13,39,790.70
2011,08,13,13,40,789.00
2011,08,13,13,41,789.00
2011,08,13,13,42,789.00
2011,08,13,13,43,789.00
2011,08,13,13,44,790.80
2011,08,13,13,45,790.60
2011,08,13,13,46,789.70
2011,08,13,13,47,790.00
2011,08,13,13,48,789.00
2011,08,13,13,49,790.60
2011,08,13,13,50,790.90
2011,08,13,13,51,789.50
2011,08,13,13,52,790.20
2011,08,13,13,53,789.00
2011,08,13,13,54,790.30
2011,08,13,13,55,791.00
2011,08,13,13,56,790.80
2011,08,13,13,57,789.50
2011,08,13,13,58,790.30
2011,08,13,13,59,788.50
2011,08,13,14,00,788.70
2011,08,13,14,01,788.20
2011,08,13,14,02,787.80
2011,08,13,14,03,786.00
2011,08,13,14,04,784.40
2011,08,13,14,05,782.00
2011,08,13,14,06,782.00
2011,08,13,14,07,779.50
2011,08,13,14,08,778.70
2011,08,13,14,09,776.40
2011,08,13,14,10,775.00
2011,08,13,14,11,773.90
2011,08,13,14,12,773.00
2011,08,13,14,13,773.00
2011,08,13,14,14,772.50
2011,08,13,14,15,770.00
2011,08,13,14,16,769.10
2011,08,13,14,17,768.00
2011,08,13,14,18,768.00
2011,08,13,14,19,768.00
2011,08,13,14,20,766.00
2011,08,13,14,21,765.70
2011,08,13,14,22,765.00
2011,08,13,14,23,763.70
2011,08,13,14,24,763.00
2011,08,13,14,25,761.20
2011,08,13,14,26,761.00
2011,08,13,14,27,760.30
2011,08,13,14,28,758.50
2011,08,13,14,29,758.00
2011,08,13,14,30,756.40
2011,08,13,14,31,756.00
2011,08,13,14,32,755.20
2011,08,13,14,33,752.00
2011,08,13,14,34,751.50
2011,08,13,14,35,751.00
2011,08,13,14,36,751.00
2011,08,13,14,37,749.10
2011,08,13,14,38,749.00
2011,08,13,14,39,748.20
2011,08,13,14,40,747.00
2011,08,13,14,41,744.90
2011,08,13,14,42,744.80
2011,08,13,14,43,743.80
2011,08,13,14,44,742.00
2011,08,13,14,45,742.00
2011,08,13,14,46,739.80
2011,08,13,14,47,738.00
2011,08,13,14,48,737.20
2011,08,13,14,49,736.70
2011,08,13,14,50,734.40
2011,08,13,14,51,733.00
2011,08,13,14,52,731.90
2011,08,13,14,53,729.60
2011,08,13,14,54,729.00
2011,08,13,14,55,728.80
2011,08,13,14,56,727.40
2011,08,13,14,57,726.00
2011,08,13,14,58,724.80
2011,08,13,14,59,724.00
2011,08,13,15,00,722.20
2011,08,13,15,01,721.00
2011,08,13,15,02,721.00
2011,08,13,15,03,720.10
2011,08,13,15,04,717.80
2011,08,13,15,05,714.80
2011,08,13,15,06,714.00
2011,08,13,15,07,714.00
2011,08,13,15,08,713.30
2011,08,13,15,09,711.00
2011,08,13,15,10,710.00
2011,08,13,15,11,708.40
2011,08,13,15,12,707.00
2011,08,13,15,13,706.50
2011,08,13,15,14,704.20
2011,08,13,15,15,701.90
2011,08,13,15,16,701.00
2011,08,13,15,17,700.20
2011,08,13,15,18,699.80
2011,08,13,15,19,698.00
2011,08,13,15,20,697.20
2011,08,13,15,21,694.90
2011,08,13,15,22,693.30
2011,08,13,15,23,691.30
2011,08,13,15,24,689.10
2011,08,13,15,25,688.40
2011,08,13,15,26,687.00
2011,08,13,15,27,685.30
2011,08,13,15,28,684.00
2011,08,13,15,29,682.40
2011,08,13,15,30,681.50
2011,08,13,15,31,679.00
2011,08,13,15,32,678.10
2011,08,13,15,33,675.80
2011,08,13,15,34,675.00
2011,08,13,15,35,671.50
2011,08,13,15,36,669.70
2011,08,13,15,37,668.00
2011,08,13,15,38,667.10
2011,08,13,15,39,664.80
2011,08,13,15,40,663.20
2011,08,13,15,41,661.20
2011,08,13,15,42,660.40
2011,08,13,15,43,657.00
2011,08,13,15,44,657.00
2011,08,13,15,45,655.00
2011,08,13,15,46,652.50
2011,08,13,15,47,650.00
2011,08,13,15,48,648.60
2011,08,13,15,49,646.20
2011,08,13,15,50,644.10
2011,08,13,15,51,642.40
2011,08,13,15,52,642.00
2011,08,13,15,53,639.90
2011,08,13,15,54,637.20
2011,08,13,15,55,635.00
2011,08,13,15,56,633.90
2011,08,13,15,57,631.70
2011,08,13,15,58,629.40
2011,08,13,15,59,627.80
2011,08,13,16,00,625.50
2011,08,13,16,01,623.30
2011,08,13,16,02,622.00
2011,08,13,16,03,621.30
2011,08,13,16,04,617.80
2011,08,13,16,05,614.90
2011,08,13,16,06,613.00
2011,08,13,16,07,612.50
2011,08,13,16,08,609.70
2011,08,13,16,09,606.60
2011,08,13,16,10,605.20
2011,08,13,16,11,602.70
2011,08,13,16,12,601.00
2011,08,13,16,13,601.00
2011,08,13,16,14,599.30
2011,08,13,16,15,595.20
2011,08,13,16,16,592.20
2011,08,13,16,17,590.70
2011,08,13,16,18,588.40
2011,08,13,16,19,585.70
2011,08,13,16,20,584.00
2011,08,13,16,21,582.50
2011,08,13,16,22,580.30
2011,08,13,16,23,577.80
2011,08,13,16,24,576.40
2011,08,13,16,25,574.10
2011,08,13,16,26,571.80
2011,08,13,16,27,570.20
2011,08,13,16,28,568.00
2011,08,13,16,29,564.00
2011,08,13,16,30,563.70
2011,08,13,16,31,560.80
2011,08,13,16,32,557.70
2011,08,13,16,33,555.40
2011,08,13,16,34,554.80
2011,08,13,16,35,551.50
2011,08,13,16,36,549.30
2011,08,13,16,37,547.50
2011,08,13,16,38,545.60
2011,08,13,16,39,543.40
2011,08,13,16,40,541.00
2011,08,13,16,41,538.90
2011,08,13,16,42,535.20
2011,08,13,16,43,533.50
2011,08,13,16,44,531.60
2011,08,13,16,45,529.40
2011,08,13,16,46,525.80
2011,08,13,16,47,523.50
2011,08,13,16,48,521.20
2011,08,13,16,49,519.50
2011,08,13,16,50,517.60
2011,08,13,16,51,515.30
2011,08,13,16,52,512.50
2011,08,13,16,53,510.00
2011,08,13,16,54,508.20
2011,08,13,16,55,504.80
2011,08,13,16,56,503.30
2011,08,13,16,57,501.30
2011,08,13,16,58,499.00
2011,08,13,16,59,498.10
2011,08,13,17,00,496.00
2011,08,13,17,01,493.60
2011,08,13,17,02,490.50
2011,08,13,17,03,489.90
2011,08,13,17,04,488.40
2011,08,13,17,05,485.00
2011,08,13,17,06,482.80
2011,08,13,17,07,480.00
2011,08,13,17,08,478.50
2011,08,13,17,09,475.10